TGW510 WSSS-VVDN

Flight info

Callsign TGW510
Flight time N/A
Altitude 36000
Route VMR6A VMR M771 DUDIS/K0850F360 L644 CN/K0848F370 L644 AC/K0807F270 W1 BMT Q1 SADIN SADIN1D
Aircraft A320/M-SDFGHIRWYZ/LB1

Departure

Time 2026-05-07 00:04
Airport Singapore Changi Airport (WSSS)

Arrival

Time N/A
Airport Da Nang International Airport (VVDN)
Time Latitude Longitude Altitude Speed Heading
2026-05-06 23:33 1.36442 103.99292 31 ft 0 kts 143°
2026-05-06 23:46 1.36451 103.99286 31 ft 4 kts 151°
2026-05-06 23:46 1.36476 103.99277 31 ft 4 kts 168°
2026-05-06 23:46 1.36499 103.99269 31 ft 2 kts 143°
2026-05-06 23:46 1.36512 103.99255 31 ft 4 kts 83°
2026-05-06 23:47 1.36502 103.99234 31 ft 4 kts 53°
2026-05-06 23:47 1.36494 103.99222 31 ft 1 kts 53°
2026-05-06 23:49 1.36503 103.99234 30 ft 5 kts 53°
2026-05-06 23:49 1.36523 103.99261 30 ft 5 kts 52°
2026-05-06 23:49 1.36544 103.99288 30 ft 5 kts 52°
2026-05-06 23:50 1.36566 103.99318 30 ft 5 kts 53°
2026-05-06 23:50 1.36579 103.99407 30 ft 9 kts 113°
2026-05-06 23:50 1.36555 103.99463 30 ft 9 kts 113°
2026-05-06 23:51 1.36529 103.99522 30 ft 9 kts 113°
2026-05-06 23:51 1.36504 103.99581 30 ft 10 kts 113°
2026-05-06 23:51 1.36477 103.99643 30 ft 10 kts 114°
2026-05-06 23:51 1.36433 103.99691 30 ft 10 kts 161°
2026-05-06 23:52 1.36371 103.99675 30 ft 9 kts 203°
2026-05-06 23:52 1.36307 103.99663 30 ft 9 kts 166°
2026-05-06 23:52 1.36261 103.99704 30 ft 9 kts 147°
2026-05-06 23:52 1.36202 103.99702 30 ft 9 kts 202°
2026-05-06 23:53 1.36145 103.99678 30 ft 9 kts 202°
2026-05-06 23:53 1.36086 103.99654 30 ft 9 kts 203°
2026-05-06 23:53 1.36025 103.99628 30 ft 10 kts 203°
2026-05-06 23:53 1.35962 103.99601 30 ft 10 kts 203°
2026-05-06 23:54 1.35898 103.99573 30 ft 10 kts 203°
2026-05-06 23:54 1.35831 103.99544 30 ft 11 kts 203°
2026-05-06 23:54 1.35763 103.99517 30 ft 11 kts 202°
2026-05-06 23:54 1.35693 103.99487 30 ft 11 kts 203°
2026-05-06 23:55 1.35621 103.99457 30 ft 11 kts 202°
2026-05-06 23:55 1.35547 103.99426 30 ft 12 kts 202°
2026-05-06 23:55 1.35472 103.99394 30 ft 12 kts 203°
2026-05-06 23:55 1.35394 103.99361 30 ft 12 kts 203°
2026-05-06 23:56 1.35314 103.99327 30 ft 13 kts 203°
2026-05-06 23:56 1.35232 103.99291 30 ft 13 kts 204°
2026-05-06 23:56 1.35147 103.99254 30 ft 13 kts 204°
2026-05-06 23:56 1.35059 103.99219 30 ft 14 kts 201°
2026-05-06 23:57 1.34969 103.99183 30 ft 14 kts 202°
2026-05-06 23:57 1.34876 103.99144 30 ft 15 kts 205°
2026-05-06 23:57 1.34778 103.99102 30 ft 16 kts 203°
2026-05-06 23:57 1.34674 103.99059 31 ft 17 kts 202°
2026-05-06 23:58 1.34557 103.99010 31 ft 19 kts 202°
2026-05-06 23:58 1.34469 103.98973 31 ft 13 kts 203°
2026-05-06 23:58 1.34380 103.98935 31 ft 15 kts 203°
2026-05-06 23:58 1.34282 103.98894 31 ft 16 kts 203°
2026-05-06 23:59 1.34175 103.98847 31 ft 18 kts 203°
2026-05-06 23:59 1.34057 103.98799 31 ft 18 kts 203°
2026-05-06 23:59 1.33952 103.98755 31 ft 15 kts 203°
2026-05-06 23:59 1.33849 103.98712 31 ft 17 kts 203°
2026-05-07 00:00 1.33734 103.98663 31 ft 19 kts 203°
2026-05-07 00:00 1.33618 103.98614 31 ft 15 kts 202°
2026-05-07 00:00 1.33513 103.98570 31 ft 17 kts 204°
2026-05-07 00:00 1.33475 103.98554 31 ft 18 kts 204°
2026-05-07 00:01 1.33268 103.98468 31 ft 21 kts 203°
2026-05-07 00:01 1.33151 103.98418 31 ft 17 kts 202°
2026-05-07 00:01 1.33039 103.98371 31 ft 14 kts 202°
2026-05-07 00:01 1.32969 103.98350 31 ft 9 kts 171°
2026-05-07 00:02 1.32933 103.98398 31 ft 9 kts 112°
2026-05-07 00:02 1.32905 103.98463 29 ft 9 kts 113°
2026-05-07 00:02 1.32913 103.98512 31 ft 8 kts 38°
2026-05-07 00:02 1.32925 103.98518 30 ft 0 kts 21°
2026-05-07 00:03 1.32926 103.98518 31 ft 1 kts 21°
2026-05-07 00:03 1.32996 103.98545 31 ft 37 kts 22°
2026-05-07 00:03 1.33431 103.98731 31 ft 97 kts 22°
2026-05-07 00:03 1.34215 103.99061 31 ft 145 kts 23°
2026-05-07 00:04 1.35269 103.99505 93 ft 177 kts 22°
2026-05-07 00:04 1.36382 103.99977 640 ft 176 kts 23°
2026-05-07 00:04 1.37522 104.00459 1168 ft 179 kts 24°
2026-05-07 00:04 1.38708 104.00960 1572 ft 192 kts 24°
2026-05-07 00:05 1.39986 104.01502 1878 ft 208 kts 23°
2026-05-07 00:05 1.41384 104.02093 2173 ft 227 kts 24°
2026-05-07 00:05 1.42907 104.02735 2571 ft 246 kts 23°
2026-05-07 00:05 1.44538 104.03424 3062 ft 263 kts 23°
2026-05-07 00:06 1.46267 104.04157 3701 ft 272 kts 23°
2026-05-07 00:06 1.47458 104.04570 4220 ft 275 kts 13°
2026-05-07 00:06 1.49368 104.04735 5017 ft 277 kts 355°
2026-05-07 00:06 1.51831 104.04050 6019 ft 282 kts 332°
2026-05-07 00:07 1.53564 104.03101 6705 ft 286 kts 331°
2026-05-07 00:07 1.55320 104.02143 7400 ft 289 kts 331°
2026-05-07 00:07 1.57106 104.01176 8102 ft 292 kts 332°
2026-05-07 00:07 1.58904 104.00206 8796 ft 295 kts 332°
2026-05-07 00:08 1.60719 103.99228 9477 ft 298 kts 332°
2026-05-07 00:08 1.62533 103.98252 10102 ft 301 kts 332°
2026-05-07 00:08 1.63796 103.97573 10398 ft 309 kts 333°
2026-05-07 00:08 1.66400 103.96172 10752 ft 330 kts 333°
2026-05-07 00:09 1.68476 103.95053 10969 ft 347 kts 333°
2026-05-07 00:09 1.70615 103.93898 11249 ft 358 kts 333°
2026-05-07 00:09 1.72829 103.92701 11753 ft 363 kts 333°
2026-05-07 00:09 1.75134 103.91648 12307 ft 364 kts 343°
2026-05-07 00:10 1.77605 103.91073 12862 ft 365 kts 355°
2026-05-07 00:10 1.80119 103.90896 13390 ft 367 kts 358°
2026-05-07 00:10 1.81847 103.90793 13727 ft 369 kts 358°
2026-05-07 00:10 1.85272 103.90582 14366 ft 373 kts 358°
2026-05-07 00:11 1.87882 103.90418 14844 ft 375 kts 358°
2026-05-07 00:11 1.90499 103.90252 15314 ft 378 kts 358°
2026-05-07 00:11 1.93103 103.90084 15778 ft 380 kts 358°
2026-05-07 00:11 1.95767 103.89912 16244 ft 383 kts 358°
2026-05-07 00:12 1.98433 103.89742 16703 ft 385 kts 358°
2026-05-07 00:12 2.01125 103.89570 17171 ft 388 kts 358°
2026-05-07 00:12 2.03834 103.89396 17633 ft 391 kts 358°
2026-05-07 00:12 2.06558 103.89221 18103 ft 393 kts 358°
2026-05-07 00:13 2.09271 103.89048 18493 ft 396 kts 358°
2026-05-07 00:13 2.12037 103.88874 18904 ft 398 kts 358°
2026-05-07 00:13 2.14817 103.88699 19304 ft 401 kts 358°
2026-05-07 00:13 2.17622 103.88523 19715 ft 404 kts 358°
2026-05-07 00:14 2.20439 103.88346 20116 ft 406 kts 358°
2026-05-07 00:14 2.23277 103.88164 20528 ft 409 kts 358°
2026-05-07 00:14 2.26095 103.87983 20921 ft 412 kts 358°
2026-05-07 00:14 2.28965 103.87799 21317 ft 414 kts 358°
2026-05-07 00:15 2.31863 103.87615 21701 ft 417 kts 358°
2026-05-07 00:15 2.34779 103.87457 22070 ft 419 kts
2026-05-07 00:15 2.37686 103.87709 22433 ft 418 kts 13°
2026-05-07 00:15 2.40450 103.88483 22777 ft 418 kts 23°
2026-05-07 00:16 2.43058 103.89775 23110 ft 418 kts 33°
2026-05-07 00:16 2.45531 103.91332 23427 ft 421 kts 33°
2026-05-07 00:16 2.48025 103.92893 23695 ft 423 kts 33°
2026-05-07 00:16 2.49682 103.93926 23871 ft 425 kts 33°
2026-05-07 00:17 2.52202 103.95494 24141 ft 427 kts 33°
2026-05-07 00:17 2.54733 103.97068 24408 ft 428 kts 33°
2026-05-07 00:17 2.58101 103.99157 24755 ft 431 kts 33°
2026-05-07 00:17 2.60654 104.00739 25012 ft 433 kts 33°
2026-05-07 00:18 2.63223 104.02334 25268 ft 434 kts 33°
2026-05-07 00:18 2.64957 104.03414 25440 ft 435 kts 33°
2026-05-07 00:18 2.67497 104.04998 25689 ft 437 kts 33°
2026-05-07 00:18 2.70083 104.06613 25937 ft 439 kts 33°
2026-05-07 00:19 2.72684 104.08233 26182 ft 441 kts 33°
2026-05-07 00:19 2.75293 104.09858 26420 ft 442 kts 33°
2026-05-07 00:19 2.77910 104.11488 26652 ft 444 kts 33°
2026-05-07 00:19 2.80539 104.13126 26887 ft 446 kts 33°
2026-05-07 00:20 2.83171 104.14767 27115 ft 447 kts 33°
2026-05-07 00:20 2.85819 104.16415 27332 ft 449 kts 33°
2026-05-07 00:20 2.88484 104.18070 27559 ft 451 kts 33°
2026-05-07 00:20 2.91152 104.19727 27786 ft 452 kts 33°
2026-05-07 00:21 2.93833 104.21395 28006 ft 454 kts 33°
2026-05-07 00:21 2.96524 104.23070 28236 ft 456 kts 33°
2026-05-07 00:21 2.99230 104.24756 28452 ft 457 kts 33°
2026-05-07 00:21 3.01938 104.26444 28678 ft 459 kts 33°
2026-05-07 00:22 3.04617 104.28116 28916 ft 460 kts 33°
2026-05-07 00:22 3.07330 104.29815 29246 ft 459 kts 33°
2026-05-07 00:22 3.10036 104.31526 29584 ft 458 kts 33°
2026-05-07 00:22 3.12731 104.33240 29900 ft 458 kts 33°
2026-05-07 00:23 3.15419 104.34943 30182 ft 457 kts 33°
2026-05-07 00:23 3.18127 104.36636 30455 ft 457 kts 33°
2026-05-07 00:23 3.20794 104.38289 30739 ft 456 kts 32°
2026-05-07 00:23 3.23502 104.39958 31029 ft 456 kts 32°
2026-05-07 00:24 3.26206 104.41627 31321 ft 455 kts 32°
2026-05-07 00:24 3.28899 104.43291 31624 ft 454 kts 33°
2026-05-07 00:24 3.31584 104.44955 31920 ft 453 kts 33°
2026-05-07 00:24 3.34267 104.46623 32229 ft 453 kts 33°
2026-05-07 00:25 3.36942 104.48290 32539 ft 452 kts 33°
2026-05-07 00:25 3.39604 104.49949 32842 ft 451 kts 33°
2026-05-07 00:25 3.42274 104.51611 33160 ft 450 kts 33°
2026-05-07 00:25 3.44936 104.53264 33470 ft 449 kts 33°
2026-05-07 00:26 3.47563 104.54894 33775 ft 449 kts 33°
2026-05-07 00:26 3.50215 104.56540 34033 ft 448 kts 33°
2026-05-07 00:26 3.52865 104.58187 34275 ft 447 kts 33°
2026-05-07 00:26 3.55513 104.59833 34524 ft 446 kts 33°
2026-05-07 00:27 3.58149 104.61471 34776 ft 445 kts 33°
2026-05-07 00:27 3.60789 104.63114 35014 ft 445 kts 33°
2026-05-07 00:27 3.63416 104.64751 35244 ft 444 kts 33°
2026-05-07 00:27 3.66007 104.66363 35468 ft 443 kts 33°
2026-05-07 00:28 3.68637 104.67993 35690 ft 443 kts 33°
2026-05-07 00:28 3.71262 104.69618 35832 ft 443 kts 33°
2026-05-07 00:28 3.76552 104.72903 35864 ft 452 kts 33°
2026-05-07 00:29 3.81914 104.76241 35861 ft 454 kts 33°
2026-05-07 00:30 3.92620 104.82903 35865 ft 454 kts 33°
2026-05-07 00:30 3.97991 104.86253 35868 ft 454 kts 33°
2026-05-07 00:31 4.03363 104.89602 35873 ft 454 kts 33°
2026-05-07 00:31 4.08710 104.92923 35875 ft 454 kts 33°
2026-05-07 00:32 4.14082 104.96266 35876 ft 454 kts 33°
2026-05-07 00:32 4.19461 104.99610 35874 ft 454 kts 33°
2026-05-07 00:33 4.24842 105.02963 35874 ft 454 kts 33°
2026-05-07 00:33 4.30222 105.06309 35873 ft 454 kts 33°
2026-05-07 00:34 4.35608 105.09652 35872 ft 455 kts 33°
2026-05-07 00:34 4.40961 105.12974 35870 ft 455 kts 33°
2026-05-07 00:35 4.46344 105.16326 35872 ft 455 kts 33°
2026-05-07 00:35 4.51735 105.19671 35870 ft 455 kts 33°
2026-05-07 00:36 4.57110 105.23020 35869 ft 455 kts 33°
2026-05-07 00:36 4.62464 105.26354 35869 ft 454 kts 33°
2026-05-07 00:37 4.67843 105.29696 35867 ft 455 kts 33°
2026-05-07 00:37 4.73235 105.33047 35869 ft 455 kts 33°
2026-05-07 00:38 4.78594 105.36381 35866 ft 455 kts 33°
2026-05-07 00:38 4.83967 105.39754 35868 ft 454 kts 34°
2026-05-07 00:39 4.89280 105.43214 35868 ft 454 kts 34°
2026-05-07 00:39 4.94527 105.46680 35865 ft 454 kts 34°
2026-05-07 00:40 4.99831 105.50149 35867 ft 454 kts 34°
2026-05-07 00:40 5.05146 105.53607 35868 ft 454 kts 34°
2026-05-07 00:41 5.10458 105.57055 35866 ft 454 kts 34°
2026-05-07 00:41 5.15728 105.60483 35867 ft 454 kts 34°
2026-05-07 00:42 5.21035 105.63935 35866 ft 454 kts 34°
2026-05-07 00:42 5.26338 105.67400 35865 ft 454 kts 34°
2026-05-07 00:43 5.31646 105.70864 35865 ft 454 kts 34°
2026-05-07 00:43 5.36928 105.74307 35866 ft 454 kts 34°
2026-05-07 00:44 5.42238 105.77764 35866 ft 454 kts 34°
2026-05-07 00:44 5.47512 105.81203 35864 ft 454 kts 34°
2026-05-07 00:45 5.52816 105.84669 35865 ft 454 kts 34°
2026-05-07 00:45 5.58111 105.88126 35866 ft 454 kts 34°
2026-05-07 00:46 5.63423 105.91586 35870 ft 454 kts 34°
2026-05-07 00:46 5.68721 105.95044 35868 ft 454 kts 34°
2026-05-07 00:47 5.73987 105.98490 35865 ft 454 kts 34°
2026-05-07 00:47 5.79291 106.01944 35864 ft 454 kts 34°
2026-05-07 00:48 5.84606 106.05409 35866 ft 455 kts 34°
2026-05-07 00:48 5.89917 106.08886 35864 ft 455 kts 34°
2026-05-07 00:49 5.95183 106.12340 35865 ft 454 kts 34°
2026-05-07 00:49 6.00506 106.15814 35866 ft 455 kts 34°
2026-05-07 00:50 6.05807 106.19272 35864 ft 455 kts 34°
2026-05-07 00:50 6.11091 106.22724 35868 ft 455 kts 34°
2026-05-07 00:51 6.16409 106.26204 35867 ft 455 kts 34°
2026-05-07 00:51 6.21718 106.29676 35870 ft 455 kts 34°
2026-05-07 00:52 6.27024 106.33153 35870 ft 455 kts 34°
2026-05-07 00:52 6.32304 106.36610 35867 ft 455 kts 34°
2026-05-07 00:53 6.37609 106.40084 35865 ft 455 kts 34°
2026-05-07 00:53 6.42924 106.43575 35866 ft 455 kts 34°
2026-05-07 00:54 6.48204 106.47030 35872 ft 455 kts 34°
2026-05-07 00:54 6.53513 106.50504 35869 ft 455 kts 34°
2026-05-07 00:55 6.57926 106.53400 35871 ft 455 kts 34°
2026-05-07 00:55 6.64103 106.57446 35869 ft 455 kts 34°
2026-05-07 00:56 6.69423 106.60925 35870 ft 455 kts 34°
2026-05-07 00:56 6.73828 106.63813 35868 ft 455 kts 34°
2026-05-07 00:57 6.79136 106.67302 35870 ft 455 kts 34°
2026-05-07 00:57 6.84413 106.70769 35869 ft 455 kts 34°
2026-05-07 00:58 6.89723 106.74259 35870 ft 455 kts 34°
2026-05-07 00:58 6.95045 106.77748 35867 ft 455 kts 32°
2026-05-07 00:59 7.00884 106.80080 35859 ft 458 kts 12°
2026-05-07 00:59 7.04056 106.80439 35854 ft 460 kts
2026-05-07 01:00 7.10465 106.79885 35850 ft 462 kts 355°
2026-05-07 01:00 7.16835 106.79206 35857 ft 462 kts 355°
2026-05-07 01:01 7.23227 106.78550 35864 ft 462 kts 355°
2026-05-07 01:01 7.29642 106.77881 35870 ft 462 kts 355°
2026-05-07 01:02 7.36006 106.77209 35879 ft 462 kts 355°
2026-05-07 01:02 7.42412 106.76529 35872 ft 462 kts 355°
2026-05-07 01:03 7.48809 106.75842 35874 ft 462 kts 355°
2026-05-07 01:03 7.55209 106.75163 35873 ft 462 kts 355°
2026-05-07 01:04 7.61573 106.74498 35876 ft 462 kts 355°
2026-05-07 01:04 7.67969 106.73825 35873 ft 462 kts 355°
2026-05-07 01:05 7.74393 106.73143 35871 ft 462 kts 354°
2026-05-07 01:05 7.80754 106.72465 35875 ft 462 kts 355°
2026-05-07 01:06 7.87173 106.71790 35873 ft 462 kts 354°
2026-05-07 01:06 7.93538 106.71120 35875 ft 462 kts 354°
2026-05-07 01:07 7.99947 106.70437 35878 ft 462 kts 354°
2026-05-07 01:07 8.06354 106.69757 35877 ft 462 kts 354°
2026-05-07 01:08 8.12729 106.69089 35878 ft 462 kts 354°
2026-05-07 01:08 8.19139 106.68408 35876 ft 462 kts 354°
2026-05-07 01:09 8.25546 106.67719 35876 ft 462 kts 354°
2026-05-07 01:09 8.31958 106.67037 35876 ft 463 kts 354°
2026-05-07 01:10 8.38367 106.66356 35878 ft 463 kts 354°
2026-05-07 01:10 8.44743 106.65670 35877 ft 463 kts 354°
2026-05-07 01:11 8.51163 106.64989 35878 ft 463 kts 354°
2026-05-07 01:11 8.57542 106.64315 35880 ft 463 kts 354°
2026-05-07 01:12 8.63949 106.63637 35878 ft 463 kts 354°
2026-05-07 01:12 8.70372 106.62961 35882 ft 463 kts 357°